• In Hungary
  • List of Countries
  • For 7 days
  • Water Temperature
  • Satellite Maps
  • Weather Map
  • News
  • Weather Widgets
  • user-avatar
    Login

    Hourly Weather Kerns

    Today, 23 September, Sunday

    Time Temperature Precipitation Wind Pressure Humidity
    00:00 +21°C° 0.1 mm 6 mps 764 mmHg 87%
    01:00 +21°C° 0.1 mm 6 mps 763 mmHg 87%
    02:00 +21°C° 0.1 mm 6 mps 763 mmHg 88%
    03:00 +21°C° 0.1 mm 7 mps 763 mmHg 88%
    04:00 +21°C° 0 mm 6 mps 763 mmHg 89%
    05:00 +21°C° 0.1 mm 6 mps 763 mmHg 88%
    06:00 +21°C° 0.1 mm 6 mps 763 mmHg 87%
    07:00 +22°C° 0.1 mm 6 mps 763 mmHg 86%
    08:00 +23°C° 0.1 mm 7 mps 763 mmHg 77%
    09:00 +26°C° 0.1 mm 7 mps 763 mmHg 68%
    10:00 +28°C° 0 mm 7 mps 763 mmHg 58%
    11:00 +29°C° 0 mm 7 mps 763 mmHg 54%
    12:00 +30°C° 0 mm 7 mps 762 mmHg 50%
    13:00 +32°C° 0 mm 7 mps 762 mmHg 46%
    14:00 +30°C° 0 mm 7 mps 762 mmHg 48%
    15:00 +30°C° 0 mm 7 mps 762 mmHg 50%
    16:00 +29°C° 0 mm 7 mps 761 mmHg 52%
    17:00 +27°C° 0.1 mm 7 mps 762 mmHg 61%
    18:00 +24°C° 0.1 mm 6 mps 762 mmHg 71%
    19:00 +22°C° 0.1 mm 6 mps 762 mmHg 80%
    20:00 +22°C° 0.1 mm 6 mps 762 mmHg 84%
    21:00 +21°C° 0.1 mm 5 mps 763 mmHg 88%
    22:00 +21°C° 0.1 mm 5 mps 763 mmHg 92%
    23:00 +21°C° 0.2 mm 5 mps 763 mmHg 93%

    Tomorrow, 24 September, Monday

    Time Temperature Precipitation Wind Pressure Humidity
    00:00 +21°C° 0.2 mm 5 mps 762 mmHg 93%
    01:00 +21°C° 0.2 mm 5 mps 762 mmHg 93%
    02:00 +20°C° 0.1 mm 5 mps 762 mmHg 93%
    03:00 +20°C° 0.1 mm 5 mps 761 mmHg 94%
    04:00 +20°C° 0.1 mm 5 mps 761 mmHg 94%
    05:00 +20°C° 0.1 mm 5 mps 761 mmHg 93%
    06:00 +20°C° 0.1 mm 5 mps 762 mmHg 91%
    07:00 +20°C° 0.1 mm 5 mps 762 mmHg 89%
    08:00 +23°C° 0.1 mm 6 mps 762 mmHg 78%
    09:00 +26°C° 0.1 mm 6 mps 762 mmHg 66%
    10:00 +28°C° 0.1 mm 6 mps 762 mmHg 54%
    11:00 +29°C° 0.1 mm 7 mps 762 mmHg 50%
    12:00 +30°C° 0.1 mm 7 mps 761 mmHg 45%
    13:00 +32°C° 0.1 mm 7 mps 761 mmHg 41%
    14:00 +30°C° 0 mm 7 mps 760 mmHg 43%
    15:00 +30°C° 0 mm 7 mps 760 mmHg 45%
    16:00 +29°C° 0 mm 7 mps 759 mmHg 47%
    17:00 +27°C° 0 mm 6 mps 760 mmHg 57%
    18:00 +24°C° 0 mm 6 mps 760 mmHg 67%
    19:00 +22°C° 0 mm 5 mps 761 mmHg 77%
    20:00 +21°C° 0 mm 5 mps 761 mmHg 81%
    21:00 +21°C° 0 mm 5 mps 762 mmHg 86%
    22:00 +20°C° 0 mm 5 mps 762 mmHg 91%
    23:00 +20°C° 0.1 mm 5 mps 762 mmHg 92%

    Day after tomorrow, 25 September, Tuesday

    Time Temperature Precipitation Wind Pressure Humidity
    00:00 +20°C° 0.1 mm 5 mps 762 mmHg 93%
    01:00 +20°C° 0.1 mm 5 mps 761 mmHg 94%
    02:00 +20°C° 0.1 mm 5 mps 761 mmHg 94%
    03:00 +20°C° 0.1 mm 5 mps 761 mmHg 94%
    04:00 +20°C° 0.1 mm 5 mps 760 mmHg 94%
    05:00 +20°C° 0.1 mm 5 mps 761 mmHg 92%
    06:00 +21°C° 0.1 mm 5 mps 761 mmHg 90%
    07:00 +21°C° 0.1 mm 5 mps 761 mmHg 88%
    08:00 +23°C° 0 mm 6 mps 762 mmHg 76%
    09:00 +27°C° 0 mm 6 mps 762 mmHg 64%
    10:00 +29°C° 0 mm 6 mps 762 mmHg 52%
    11:00 +30°C° 0 mm 6 mps 761 mmHg 49%
    12:00 +30°C° 0 mm 7 mps 761 mmHg 46%
    13:00 +32°C° 0 mm 7 mps 760 mmHg 42%
    14:00 +32°C° 0 mm 7 mps 760 mmHg 44%
    15:00 +30°C° 0 mm 7 mps 759 mmHg 45%
    16:00 +30°C° 0 mm 7 mps 759 mmHg 47%
    17:00 +28°C° 0.1 mm 7 mps 760 mmHg 56%
    18:00 +26°C° 0.1 mm 7 mps 760 mmHg 65%
    19:00 +22°C° 0.1 mm 6 mps 761 mmHg 75%
    20:00 +22°C° 0.1 mm 6 mps 761 mmHg 79%
    21:00 +21°C° 0.1 mm 6 mps 762 mmHg 84%
    22:00 +21°C° 0.1 mm 5 mps 762 mmHg 89%
    23:00 +20°C° 0.1 mm 5 mps 762 mmHg 90%

    26 September, Wednesday

    Time Temperature Precipitation Wind Pressure Humidity
    00:00 +20°C° 0.1 mm 5 mps 762 mmHg 92%
    01:00 +20°C° 0.1 mm 5 mps 761 mmHg 93%
    02:00 +20°C° 0 mm 5 mps 761 mmHg 93%
    03:00 +20°C° 0 mm 5 mps 761 mmHg 94%
    04:00 +20°C° 0 mm 5 mps 760 mmHg 94%
    05:00 +20°C° 0 mm 5 mps 761 mmHg 92%
    06:00 +21°C° 0 mm 6 mps 761 mmHg 89%
    07:00 +21°C° 0 mm 6 mps 762 mmHg 87%
    08:00 +23°C° 0 mm 6 mps 762 mmHg 75%
    09:00 +26°C° 0 mm 6 mps 762 mmHg 63%
    10:00 +29°C° 0 mm 7 mps 763 mmHg 52%
    11:00 +29°C° 0 mm 7 mps 762 mmHg 49%
    12:00 +30°C° 0 mm 7 mps 761 mmHg 46%
    13:00 +32°C° 0 mm 7 mps 761 mmHg 43%
    14:00 +30°C° 0 mm 6 mps 760 mmHg 45%
    15:00 +30°C° 0 mm 6 mps 760 mmHg 47%
    16:00 +29°C° 0 mm 6 mps 760 mmHg 50%
    17:00 +27°C° 0 mm 6 mps 760 mmHg 60%
    18:00 +24°C° 0 mm 6 mps 761 mmHg 70%
    19:00 +22°C° 0 mm 5 mps 761 mmHg 80%
    20:00 +22°C° 0.1 mm 5 mps 762 mmHg 84%
    21:00 +21°C° 0.1 mm 5 mps 762 mmHg 88%
    22:00 +21°C° 0.1 mm 5 mps 763 mmHg 92%
    23:00 +21°C° 0.1 mm 5 mps 762 mmHg 93%

    27 September, Thursday

    Time Temperature Precipitation Wind Pressure Humidity
    00:00 +21°C° 0.1 mm 5 mps 762 mmHg 93%
    01:00 +21°C° 0.1 mm 5 mps 762 mmHg 93%
    02:00 +21°C° 0 mm 5 mps 762 mmHg 93%
    03:00 +21°C° 0 mm 5 mps 761 mmHg 93%
    04:00 +20°C° 0 mm 5 mps 761 mmHg 93%
    05:00 +21°C° 0.1 mm 5 mps 762 mmHg 91%
    06:00 +21°C° 0.1 mm 5 mps 762 mmHg 89%
    07:00 +22°C° 0.1 mm 5 mps 763 mmHg 88%
    08:00 +23°C° 0.3 mm 5 mps 763 mmHg 82%
    09:00 +24°C° 0.3 mm 6 mps 763 mmHg 77%
    10:00 +26°C° 0.3 mm 6 mps 763 mmHg 72%
    11:00 +26°C° 0.3 mm 6 mps 763 mmHg 71%
    12:00 +26°C° 0.3 mm 6 mps 762 mmHg 71%
    13:00 +26°C° 0.3 mm 5 mps 762 mmHg 71%
    14:00 +26°C° 0.3 mm 5 mps 761 mmHg 71%
    15:00 +26°C° 0.3 mm 6 mps 761 mmHg 71%
    16:00 +26°C° 0.3 mm 6 mps 761 mmHg 71%
    17:00 +25°C° 0.3 mm 5 mps 761 mmHg 77%
    18:00 +23°C° 0.3 mm 5 mps 762 mmHg 82%
    19:00 +22°C° 0.3 mm 5 mps 762 mmHg 88%
    20:00 +21°C° 0.1 mm 5 mps 763 mmHg 89%
    21:00 +21°C° 0.1 mm 5 mps 763 mmHg 91%
    22:00 +20°C° 0.1 mm 5 mps 763 mmHg 92%
    23:00 +20°C° 0 mm 5 mps 762 mmHg 93%

    28 September, Friday

    Time Temperature Precipitation Wind Pressure Humidity
    00:00 +20°C° 0 mm 5 mps 762 mmHg 94%
    01:00 +20°C° 0 mm 5 mps 761 mmHg 94%
    02:00 +20°C° 0.1 mm 5 mps 761 mmHg 94%
    03:00 +20°C° 0.1 mm 5 mps 761 mmHg 94%
    04:00 +20°C° 0.1 mm 5 mps 761 mmHg 93%
    05:00 +20°C° 0.1 mm 5 mps 762 mmHg 92%
    06:00 +20°C° 0.1 mm 5 mps 762 mmHg 90%
    07:00 +21°C° 0.1 mm 5 mps 763 mmHg 88%
    08:00 +23°C° 0.1 mm 5 mps 763 mmHg 78%
    09:00 +26°C° 0.1 mm 6 mps 763 mmHg 68%
    10:00 +28°C° 0.1 mm 6 mps 763 mmHg 59%
    11:00 +28°C° 0 mm 6 mps 762 mmHg 54%
    12:00 +29°C° 0 mm 6 mps 761 mmHg 50%
    13:00 +30°C° 0 mm 6 mps 761 mmHg 46%
    14:00 +30°C° 0 mm 6 mps 760 mmHg 47%
    15:00 +29°C° 0 mm 6 mps 760 mmHg 49%
    16:00 +29°C° 0 mm 6 mps 760 mmHg 50%
    17:00 +27°C° 0 mm 5 mps 760 mmHg 59%
    18:00 +25°C° 0 mm 5 mps 761 mmHg 69%
    19:00 +22°C° 0 mm 5 mps 761 mmHg 78%
    20:00 +21°C° 0.1 mm 4 mps 761 mmHg 83%
    21:00 +21°C° 0.1 mm 4 mps 762 mmHg 88%
    22:00 +20°C° 0.1 mm 4 mps 762 mmHg 93%
    23:00 +20°C° 0.2 mm 4 mps 761 mmHg 94%
    Show more